Regional Weather Roundup
Issued by NWS Green Bay, WI

Home | Current Version | Previous Version | Graphics & Text | Print | Product List | Glossary Off
Versions: 1 2 3 4 5 6 7 8 9 10 11 12 13 14 15 16 17 18 19 20 21 22 23 24 25 26 27 28 29 30 31 32 33 34 35 36 37 38 39 40 41 42 43 44 45 46 47 48 49 50

000
ASUS43 KGRB 211311
RWRGRB

NORTH-CENTRAL AND NORTHEAST WISCONSIN REGIONAL WEATHER ROUNDUP
NATIONAL WEATHER SERVICE GREEN BAY WI
800 AM CDT FRI JUL 21 2017

WIZ005-009-010>012-018-019-211400-
NORTH CENTRAL WISCONSIN

CITY           SKY/WX    TMP DP  RH WIND       PRES   REMARKS
IRONWOOD       CLOUDY    64  62  93 CALM      29.96R
MANITOWISH WTR CLOUDY    65  65 100 CALM      29.98R
ARBOR VITAE    SUNNY     72  68  86 SW5       29.98S
EAGLE RIVER    SUNNY     68  65  89 S6        29.98F
LAND O LAKES   SUNNY     66  63  89 S3        30.00S
RHINELANDER    SUNNY     68  65  90 CALM      29.99F
PHILLIPS       SUNNY     68  64  89 CALM      29.99R
ANTIGO         SUNNY     69  65  86 S5        30.00F
TOMAHAWK         N/A     66  64  93 CALM      30.00R
MERRILL        SUNNY     65  64  98 CALM      30.00R
$$

WIZ013-073-211400-
NORTHEAST WISCONSIN

CITY           SKY/WX    TMP DP  RH WIND       PRES   REMARKS
IRON MOUNTAIN  SUNNY     68  60  75 CALM      29.97S
MARINETTE      SUNNY     71  66  84 CALM      29.97F
OCONTO         MOSUNNY   70  66  86 CALM      29.96F
$$

WIZ017-030-035>037-045-211400-
CENTRAL WISCONSIN

CITY           SKY/WX    TMP DP  RH WIND       PRES   REMARKS
MEDFORD        SUNNY     67  66  95 CALM      30.00R
WAUSAU         SUNNY     68  66  93 CALM      29.98R
MOSINEE        MOSUNNY   66  66 100 CALM      29.99S FOG
MARSHFIELD     SUNNY     72  66  81 E5        29.98R
WISC RAPIDS    CLOUDY    69  68  96 E5        29.99R
STEVENS POINT  MOSUNNY   68  67  99 CALM      30.00R FOG
WAUPACA        CLOUDY    69  69  98 CALM      29.98S
SHAWANO        MOSUNNY   71  65  83 CALM      29.97S
CLINTONVILLE   PTSUNNY   68  64  88 CALM      29.97F
WAUTOMA        CLOUDY    69  67  93 CALM      29.98S
$$

WIZ038-039-048-051-211400-
FOX VALLEY

CITY           SKY/WX    TMP DP  RH WIND       PRES   REMARKS
NWS GREEN BAY  PTSUNNY   70  69  97 CALM      29.97F
APPLETON       PTSUNNY   70  66  88 CALM      29.97S
OSHKOSH        MOSUNNY   72  68  87 SE3       29.97F
FOND DU LAC    MOSUNNY   72  68  87 CALM      29.98F
$$

WIZ022-050-052-211400-
EAST CENTRAL WISCONSIN

CITY           SKY/WX    TMP DP  RH WIND       PRES   REMARKS
EPHRAIM        FAIR      71  67  88 CALM      29.97S
WASHINGTON ISL FAIR      69  67  94 SW5       29.96S
STURGEON BAY     N/A     72  67  84 MISG      29.97F
MANITOWOC      PTSUNNY   74  68  81 CALM      29.98F
SHEBOYGAN      CLOUDY    71  71 100 CALM      29.98F FOG
$$

LMZ563-521-522-541>543-211400-
LAKESHORE

STATION/POSITION TIME  TEMP    WIND        PRES    VSBY  WAVE
                       AIR SEA DIR/SP/G                  HT/PER
                 (UTC) (F)     (DEG/KT/KT) (MB)    (MI)  (FT/S)
SHEBOYGAN LKSHOR 1300   69      20/  3/  3 1014.5F
KEWAUNEE LKSHORE 1248   73        CALM     1014.2F
NORTHPORT PIER   1240   72     240/  3/  5 1014.9S
N MID LAKE BUOY  1250   67 65  190/ 10/ 12 1015.0F         1
S GREEN BAY BUOY 1230   72 72  210/  2/  2 1014.7F
SISTER BAY LKSHO 1302   80        CALM       N/A
CHAMBERS ISLAND  1240   72     190/  4/  7 1014.2F
MENOMINEE LKSHOR 1248   72     200/  6/  8 1014.4F
$$




USA.gov is the U.S. government's official web portal to all federal, state and local government web resources and services.